EN

Hourly Weather Pahomovo

Today, 3 March, Wednesday

Time Temperature Precipitation Wind Pressure Humidity
00:00 -4°C° 0.1 mm 5 mps 736 mmHg 91%
01:00 -5°C° 0 mm 5 mps 736 mmHg 91%
02:00 -6°C° 0 mm 5 mps 737 mmHg 90%
03:00 -6°C° 0 mm 5 mps 737 mmHg 92%
04:00 -7°C° 0 mm 5 mps 737 mmHg 92%
05:00 -7°C° 0 mm 5 mps 738 mmHg 91%
06:00 -8°C° 0 mm 5 mps 738 mmHg 91%
07:00 -8°C° 0 mm 5 mps 739 mmHg 90%
08:00 -8°C° 0 mm 5 mps 739 mmHg 89%
09:00 -8°C° 0 mm 5 mps 739 mmHg 88%
10:00 -7°C° 0 mm 5 mps 739 mmHg 86%
11:00 -5°C° 0 mm 5 mps 739 mmHg 84%
12:00 -4°C° 0 mm 5 mps 740 mmHg 82%
13:00 -4°C° 0 mm 5 mps 739 mmHg 83%
14:00 -4°C° 0 mm 5 mps 739 mmHg 85%
15:00 -2°C° 0 mm 4 mps 739 mmHg 86%
16:00 -4°C° 0 mm 5 mps 738 mmHg 86%
17:00 -4°C° 0 mm 5 mps 738 mmHg 87%
18:00 -4°C° 0 mm 5 mps 738 mmHg 88%
19:00 -4°C° 0 mm 5 mps 737 mmHg 88%
20:00 -4°C° 0 mm 5 mps 737 mmHg 89%
21:00 -5°C° 0 mm 5 mps 737 mmHg 90%
22:00 -5°C° 0 mm 5 mps 736 mmHg 91%
23:00 -5°C° 0 mm 5 mps 736 mmHg 92%

Tomorrow, 4 March, Thursday

Time Temperature Precipitation Wind Pressure Humidity
00:00 -5°C° 0 mm 5 mps 735 mmHg 93%
01:00 -5°C° 0.1 mm 6 mps 734 mmHg 93%
02:00 -4°C° 0.1 mm 7 mps 733 mmHg 94%
03:00 -4°C° 0.1 mm 7 mps 733 mmHg 94%
04:00 -4°C° 0.1 mm 7 mps 732 mmHg 91%
05:00 -4°C° 0.1 mm 7 mps 731 mmHg 88%
06:00 -5°C° 0.1 mm 8 mps 730 mmHg 85%
07:00 -5°C° 0 mm 8 mps 730 mmHg 86%
08:00 -4°C° 0 mm 7 mps 730 mmHg 87%
09:00 -6°C° 0 mm 7 mps 730 mmHg 88%
10:00 -4°C° 0 mm 7 mps 729 mmHg 90%
11:00 -4°C° 0 mm 6 mps 729 mmHg 92%
12:00 -3°C° 0 mm 6 mps 729 mmHg 93%
13:00 -3°C° 0.1 mm 6 mps 729 mmHg 95%
14:00 -2°C° 0.1 mm 5 mps 729 mmHg 97%
15:00 -2°C° 0.1 mm 5 mps 729 mmHg 99%
16:00 -2°C° 0.6 mm 5 mps 729 mmHg 98%
17:00 -3°C° 0.6 mm 4 mps 728 mmHg 97%
18:00 -3°C° 0.6 mm 4 mps 728 mmHg 96%
19:00 -4°C° 0.5 mm 3 mps 728 mmHg 95%
20:00 -4°C° 0.5 mm 2 mps 729 mmHg 94%
21:00 -4°C° 0.5 mm 2 mps 729 mmHg 93%
22:00 -3°C° 0 mm 1 mps 729 mmHg 92%
23:00 -3°C° 0 mm 1 mps 729 mmHg 91%

Day after tomorrow, 5 March, Friday

Time Temperature Precipitation Wind Pressure Humidity
00:00 -4°C° 0 mm 1 mps 729 mmHg 90%
01:00 -4°C° 0 mm 1 mps 729 mmHg 90%
02:00 -6°C° 0 mm 1 mps 730 mmHg 91%
03:00 -6°C° 0 mm 1 mps 730 mmHg 92%
04:00 -7°C° 0 mm 1 mps 730 mmHg 92%
05:00 -7°C° 0 mm 1 mps 731 mmHg 92%
06:00 -8°C° 0 mm 0 mps 731 mmHg 92%
07:00 -7°C° 0 mm 0 mps 731 mmHg 92%
08:00 -7°C° 0 mm 0 mps 732 mmHg 92%
09:00 -7°C° 0 mm 0 mps 732 mmHg 91%
10:00 -4°C° 0 mm 1 mps 732 mmHg 89%
11:00 -3°C° 0 mm 1 mps 733 mmHg 86%
12:00 -2°C° 0 mm 1 mps 733 mmHg 83%
13:00 -4°C° 0.1 mm 2 mps 733 mmHg 82%
14:00 -3°C° 0.1 mm 2 mps 734 mmHg 81%
15:00 -3°C° 0.1 mm 2 mps 734 mmHg 80%
16:00 -4°C° 0.1 mm 2 mps 734 mmHg 82%
17:00 -5°C° 0.1 mm 2 mps 734 mmHg 84%
18:00 -7°C° 0.1 mm 2 mps 735 mmHg 87%
19:00 -8°C° 0 mm 2 mps 735 mmHg 87%
20:00 -9°C° 0 mm 2 mps 736 mmHg 88%
21:00 -10°C° 0 mm 2 mps 736 mmHg 88%
22:00 -10°C° 0 mm 2 mps 736 mmHg 88%
23:00 -10°C° 0 mm 1 mps 737 mmHg 87%

6 March, Saturday

Time Temperature Precipitation Wind Pressure Humidity
00:00 -10°C° 0 mm 1 mps 737 mmHg 87%
01:00 -10°C° 0 mm 1 mps 737 mmHg 87%
02:00 -11°C° 0 mm 1 mps 737 mmHg 87%
03:00 -11°C° 0 mm 1 mps 738 mmHg 87%
04:00 -11°C° 0 mm 1 mps 738 mmHg 88%
05:00 -11°C° 0 mm 1 mps 738 mmHg 89%
06:00 -13°C° 0 mm 2 mps 738 mmHg 90%
07:00 -13°C° 0 mm 2 mps 738 mmHg 91%
08:00 -10°C° 0 mm 1 mps 738 mmHg 91%
09:00 -9°C° 0 mm 1 mps 739 mmHg 92%
10:00 -9°C° 0 mm 2 mps 739 mmHg 90%
11:00 -8°C° 0 mm 2 mps 739 mmHg 89%
12:00 -7°C° 0 mm 2 mps 739 mmHg 87%
13:00 -7°C° 0.1 mm 2 mps 739 mmHg 86%
14:00 -7°C° 0.1 mm 2 mps 739 mmHg 85%
15:00 -7°C° 0.1 mm 2 mps 739 mmHg 83%
16:00 -8°C° 0 mm 2 mps 739 mmHg 85%
17:00 -8°C° 0 mm 1 mps 739 mmHg 86%
18:00 -9°C° 0 mm 1 mps 739 mmHg 87%
19:00 -10°C° 0 mm 2 mps 739 mmHg 87%
20:00 -12°C° 0 mm 2 mps 739 mmHg 87%
21:00 -13°C° 0 mm 2 mps 739 mmHg 87%
22:00 -14°C° 0 mm 3 mps 738 mmHg 88%
23:00 -14°C° 0 mm 3 mps 738 mmHg 88%

7 March, Sunday

Time Temperature Precipitation Wind Pressure Humidity
00:00 -15°C° 0 mm 4 mps 737 mmHg 89%
01:00 -14°C° 0 mm 5 mps 737 mmHg 88%
02:00 -15°C° 0 mm 6 mps 736 mmHg 86%
03:00 -14°C° 0 mm 7 mps 735 mmHg 85%
04:00 -13°C° 0 mm 7 mps 734 mmHg 83%
05:00 -12°C° 0 mm 8 mps 733 mmHg 81%
06:00 -12°C° 0 mm 9 mps 732 mmHg 79%
07:00 -11°C° 0.1 mm 9 mps 731 mmHg 83%
08:00 -12°C° 0.1 mm 10 mps 730 mmHg 87%
09:00 -12°C° 0.1 mm 10 mps 729 mmHg 90%
10:00 -10°C° 0.2 mm 10 mps 728 mmHg 90%
11:00 -9°C° 0.2 mm 10 mps 727 mmHg 91%
12:00 -8°C° 0.2 mm 11 mps 726 mmHg 91%
13:00 -8°C° 0.3 mm 11 mps 726 mmHg 91%
14:00 -7°C° 0.3 mm 11 mps 725 mmHg 90%
15:00 -7°C° 0.3 mm 11 mps 725 mmHg 90%
16:00 -6°C° 0.9 mm 9 mps 724 mmHg 91%
17:00 -7°C° 0.9 mm 7 mps 724 mmHg 93%
18:00 -7°C° 0.9 mm 5 mps 724 mmHg 94%
19:00 -8°C° 0.3 mm 5 mps 724 mmHg 92%
20:00 -8°C° 0.3 mm 4 mps 724 mmHg 91%
21:00 -9°C° 0.3 mm 4 mps 725 mmHg 89%
22:00 -10°C° 0 mm 4 mps 725 mmHg 89%
23:00 -10°C° 0 mm 4 mps 725 mmHg 88%

8 March, Monday

Time Temperature Precipitation Wind Pressure Humidity
00:00 -12°C° 0 mm 5 mps 725 mmHg 88%
01:00 -12°C° 0 mm 5 mps 726 mmHg 86%
02:00 -12°C° 0 mm 6 mps 726 mmHg 85%
03:00 -14°C° 0 mm 7 mps 726 mmHg 84%
04:00 -14°C° 0.1 mm 6 mps 727 mmHg 82%
05:00 -14°C° 0.1 mm 6 mps 727 mmHg 80%
06:00 -15°C° 0.1 mm 6 mps 728 mmHg 79%
07:00 -15°C° 0 mm 6 mps 729 mmHg 79%
08:00 -14°C° 0 mm 5 mps 730 mmHg 80%
09:00 -15°C° 0 mm 5 mps 730 mmHg 81%
10:00 -14°C° 0 mm 5 mps 731 mmHg 79%
11:00 -12°C° 0 mm 4 mps 732 mmHg 78%
12:00 -11°C° 0 mm 4 mps 732 mmHg 76%
13:00 -10°C° 0 mm 4 mps 733 mmHg 75%
14:00 -10°C° 0 mm 4 mps 733 mmHg 74%
15:00 -10°C° 0 mm 4 mps 734 mmHg 74%
16:00 -11°C° 0 mm 4 mps 734 mmHg 77%
17:00 -12°C° 0 mm 3 mps 734 mmHg 81%
18:00 -13°C° 0 mm 3 mps 734 mmHg 84%
19:00 -13°C° 0 mm 2 mps 735 mmHg 87%
20:00 -14°C° 0 mm 2 mps 735 mmHg 89%
21:00 -15°C° 0 mm 2 mps 736 mmHg 92%
22:00 -15°C° 0 mm 2 mps 736 mmHg 93%
23:00 -15°C° 0 mm 2 mps 737 mmHg 94%
Show more

We Need Your Consent

Meteoprog and our Service Providers may store and access personal data such as cookies, device identifiers or other similar technologies on your device and process such data to personalise content and ads, as well as provide social media features and to analyse the traffic.

  • Store and/or access information on your device

    Cookies, device identifiers or other information can be stored or accessed on your device for the purposes indicated above.

  • Personalised ads and content, ad and content measurement, audience insights, and products development

    Ads and content can be personalised based on a profile. More data can be added to better personalise ads and content. Ad and content performance can be measured. Insights about the audience who saw the ads and content can be derived. Such data can be used to develop or improve user’s experience, systems and software.

By clicking ‘I Agree’ you will allow the use of indicated cookies, device identifiers, web beacons or other similar technologies. Your settings can be changed in the browser on your device.

For certain purposes, legitimate interests may be relied on, rather than consent. You can read more about this in our Privacy and Cookie Policy.